Location: Seasalter
(51.3333°N, 1.0167°E)
Time: 04:16:36
(UTC+00:00)

ATLAS 5 CENTAUR R/B - Pass Details

Date: 29 April 2024
Orbit: 421 x 1170 km, 63.3° (Epoch: 18 May)

Event Time Altitude Azimuth Distance (km) Brightness Sun altitude
Rises 20:42:45 0° 304° (NW) 2,615 6.7 -12.0°
Reaches altitude 10° 20:45:23 10° 326° (NW) 1,836 5.4 -12.3°
Maximum altitude 20:48:12 17° 9° (N) 1,534 4.0 -12.6°
Drops below altitude 10° 20:51:22 10° 51° (NE) 2,116 4.2 -12.9°
Sets 20:54:43 0° 71° (ENE) 3,206 5.0 -13.3°
